GFSSE_250_rhum_315.txt.gz
RH
100 61 31 57 47 21 19 38 100 100 100 100 100 100 100 99 76 54 37 26 23 35 67 70 59 68 72 97 96 88 100 97 98 95 90 95 93 90 79 75 63 51 33
100 85 58 67 63 42 33 57 69 96 100 100 100 100 100 94 78 64 51 35 25 24 61 94 64 54 52 64 74 73 76 100 100 99 96 87 73 74 66 53 49 39 32
100 100 100 67 94 85 80 87 100 82 100 100 100 100 100 100 91 68 56 46 32 26 24 29 60 62 61 52 54 62 74 66 69 72 69 65 56 50 46 43 39 33 32
100 100 100 100 91 100 100 95 97 100 100 100 100 100 100 100 100 79 62 56 48 31 27 27 33 49 56 63 59 59 52 56 61 59 54 51 49 47 43 38 35 34 37
100 100 100 100 100 100 100 100 100 100 100 98 100 100 100 100 100 100 97 72 62 54 34 28 28 33 49 54 55 58 58 60 55 53 54 56 51 49 37 34 34 39 37
100 100 100 100 100 100 100 100 100 100 100 100 100 100 100 99 100 100 100 78 70 67 51 34 29 27 33 46 51 52 52 59 63 61 58 59 57 43 35 33 38 40 40
87 100 100 100 100 100 100 100 100 100 100 100 100 100 98 100 100 100 100 100 100 98 79 46 34 31 26 33 46 47 50 46 46 51 60 55 46 39 33 35 41 42 45
77 96 100 100 100 100 100 100 100 100 100 100 100 100 99 100 99 100 100 100 100 100 100 92 48 35 30 25 34 41 50 49 35 38 51 50 41 35 31 35 43 45 49
74 92 90 100 100 100 100 100 100 100 100 100 100 100 100 100 100 100 100 100 100 100 100 100 98 55 36 31 25 34 38 38 38 29 33 41 39 32 29 32 43 44 50
88 51 74 88 100 100 100 100 100 100 100 100 100 100 100 100 100 100 100 100 100 92 100 100 100 99 55 36 33 24 32 33 36 29 26 27 35 30 27 33 40 42 48
100 72 61 71 100 100 100 100 100 100 97 100 94 98 100 100 100 100 100 100 100 100 100 100 100 100 91 53 38 32 24 30 36 32 26 24 26 28 26 31 36 38 45
100 96 45 84 100 100 100 100 100 100 98 100 100 100 97 100 100 100 100 100 100 100 100 100 100 100 100 95 62 42 28 25 25 30 27 23 23 24 24 28 33 35 41
97 100 100 67 65 65 76 100 100 100 100 100 100 100 100 96 94 98 95 100 100 100 98 100 100 100 100 100 100 82 44 32 28 25 23 23 22 22 24 27 29 31 37
21 24 94 100 100 47 44 92 100 100 100 100 100 100 100 100 100 98 94 81 100 100 100 88 100 100 100 100 100 100 96 52 39 32 26 23 22 22 22 24 26 28 32
12 17 18 58 100 100 76 56 84 98 98 100 100 100 100 100 100 100 100 100 95 83 100 100 100 100 100 100 100 100 100 100 65 48 36 29 26 26 23 22 23 24 26
14 13 12 15 27 98 100 97 76 86 97 85 78 84 100 100 100 100 100 100 100 100 94 83 97 100 100 99 100 100 100 100 100 98 74 54 35 29 30 29 28 27 27
20 17 15 12 10 12 59 99 87 76 77 80 80 77 71 100 100 100 100 100 100 100 100 100 89 66 100 100 100 100 100 100 99 100 100 100 100 73 43 32 34 34 34
18 18 19 17 15 12 11 23 83 70 97 87 68 67 56 79 88 100 100 100 100 100 100 100 100 100 78 99 100 100 100 100 100 100 96 97 100 100 94 64 40 34 34
18 17 16 16 18 18 14 11 12 19 39 66 80 86 63 66 66 88 95 100 100 100 100 100 100 90 91 72 99 100 100 100 100 100 100 100 100 100 100 100 83 54 40
18 17 16 16 16 17 18 17 14 12 11 14 21 53 82 77 61 80 98 96 96 100 100 95 100 100 100 98 81 80 100 100 100 100 100 100 100 100 100 100 100 100 80
18 18 17 16 17 16 16 17 17 18 14 13 12 16 21 41 62 75 70 100 100 100 94 100 85 100 100 100 100 100 89 95 100 100 100 100 100 100 100 100 100 100 100
22 18 17 17 17 18 18 17 17 16 18 18 14 12 11 16 17 27 86 90 100 100 100 100 85 95 100 100 100 87 95 98 86 91 92 100 100 100 100 100 100 100 100
35 32 25 19 18 19 20 21 21 20 18 16 17 17 13 12 13 18 24 83 100 100 100 100 100 100 100 100 100 99 86 97 100 91 95 96 88 100 100 100 100 100 100
31 36 34 30 21 17 18 21 21 21 20 18 16 15 16 14 12 10 14 18 47 100 100 100 100 100 100 100 100 100 74 99 100 100 99 85 95 100 100 100 100 100 100
29 27 27 27 24 21 17 18 20 20 18 16 15 14 13 15 15 13 11 13 18 34 100 100 100 100 100 100 100 100 97 100 85 98 97 79 70 93 100 100 97 95 94
26 26 27 29 26 23 20 18 17 16 16 16 14 13 13 12 11 12 12 11 11 16 36 100 100 100 100 100 100 100 100 100 94 95 98 97 54 64 78 80 79 76 80

GFSSE_250_rhum_318.txt.gz
RH
61 86 80 83 60 90 39 30 49 83 99 100 100 100 100 100 100 86 51 27 46 83 94 72 71 69 77 100 100 97 95 96 66 58 54 60 97 98 82 74 70 68 58
88 100 100 100 90 100 86 52 57 60 100 100 100 96 98 100 100 89 64 36 29 68 84 69 62 57 55 67 95 100 93 100 100 97 91 94 98 89 85 78 65 53 59
95 96 100 100 100 100 94 96 51 84 100 100 100 99 100 100 100 100 70 57 34 32 38 59 46 53 43 49 52 66 81 89 98 100 100 97 95 77 60 55 48 43 46
92 100 100 100 100 100 100 100 79 100 100 100 100 100 94 100 100 100 98 67 58 42 31 27 27 28 37 46 52 56 57 73 79 78 77 80 67 61 55 48 45 38 35
100 100 100 100 100 100 100 100 100 100 100 100 100 100 85 100 100 100 100 95 68 68 51 36 29 28 30 35 45 51 59 67 70 68 64 66 60 56 52 48 39 37 34
100 100 100 100 100 100 100 100 100 100 100 100 100 100 70 80 95 100 100 100 100 71 71 64 46 31 30 31 36 46 51 58 68 72 68 64 68 68 55 45 38 37 40
70 100 100 100 100 99 96 100 100 100 100 100 100 100 100 100 100 100 99 98 100 100 100 84 73 44 32 31 32 35 46 49 52 60 70 68 63 62 55 45 38 40 42
55 98 100 100 98 100 100 100 100 100 100 100 100 100 100 100 100 100 100 88 100 100 100 100 100 85 43 34 31 32 39 49 49 49 47 48 54 55 48 44 39 42 46
40 86 100 100 100 95 100 96 98 100 100 100 100 100 100 100 100 100 100 100 74 100 100 100 100 100 97 47 36 33 32 42 46 47 42 37 44 49 45 38 36 38 46
47 96 100 100 100 100 100 100 100 100 100 100 100 100 100 100 100 100 100 100 100 96 100 100 100 100 100 100 76 38 33 30 38 44 41 39 32 40 39 37 34 35 43
67 86 97 100 100 100 100 100 100 100 100 100 100 100 100 100 100 100 100 100 100 100 93 97 99 98 98 100 100 86 39 36 29 38 44 45 34 28 34 36 35 31 38
72 50 97 84 100 100 100 100 97 100 100 100 100 100 100 100 97 100 100 87 95 100 100 100 100 100 100 100 100 100 92 46 40 30 29 39 43 31 25 31 31 29 32
21 45 70 85 90 100 100 100 100 100 100 100 100 100 100 100 96 94 94 89 91 80 100 99 100 100 100 100 100 100 100 100 71 46 28 28 29 32 27 24 27 27 29
13 18 71 100 91 65 77 88 100 100 100 100 100 100 100 100 100 100 100 85 75 80 79 99 100 100 97 100 100 100 100 100 100 98 52 34 28 26 25 24 23 24 26
14 14 14 42 100 100 62 67 64 78 100 100 100 100 100 100 96 100 100 100 92 81 83 67 63 96 100 96 94 100 100 100 100 100 100 84 48 34 27 26 24 23 24
16 15 16 14 16 62 100 95 64 62 100 100 100 100 100 100 100 100 100 100 100 100 98 89 74 66 67 96 99 99 99 100 100 100 100 100 100 67 53 36 28 26 24
17 16 17 16 16 14 16 41 65 77 73 100 95 91 98 100 100 100 100 100 100 100 100 100 100 95 82 81 68 95 97 81 92 100 100 100 100 100 100 99 68 38 29
20 18 17 17 16 15 14 14 14 14 60 76 57 44 42 99 100 100 100 100 100 100 100 100 100 100 99 80 88 82 83 91 83 69 99 100 100 100 100 100 100 100 94
22 21 20 19 18 18 18 16 15 12 12 14 58 100 89 58 78 100 100 100 100 100 100 100 100 100 100 100 100 100 95 92 91 72 64 92 100 100 100 100 100 100 100
24 22 23 23 20 18 18 17 18 16 13 12 13 17 55 84 80 59 72 98 100 100 100 100 100 100 100 100 100 100 98 98 98 100 98 81 86 97 100 100 100 100 100
26 26 27 23 20 20 19 17 18 17 17 16 14 12 13 17 58 92 80 76 87 82 90 100 100 100 100 100 100 100 81 76 70 78 91 93 100 100 96 100 100 100 100
46 37 30 26 26 26 22 21 19 17 17 17 16 16 13 13 14 15 70 92 82 85 80 73 89 100 100 100 100 100 100 79 55 58 68 81 96 77 98 100 99 99 100
55 42 34 28 26 26 25 26 23 21 17 18 18 17 16 16 13 13 14 21 33 41 64 81 87 84 93 100 100 100 99 99 100 85 66 59 81 98 92 63 93 93 72
66 56 44 35 30 27 26 27 27 26 24 22 19 17 17 16 16 15 13 12 13 13 17 28 49 90 90 100 100 100 100 100 100 100 100 72 51 74 89 90 84 64 94
73 64 56 49 40 32 28 27 26 27 26 25 21 19 18 17 16 15 14 15 14 14 14 14 18 38 81 100 100 100 100 100 100 100 100 99 48 59 88 100 100 89 82
74 69 58 51 47 40 36 31 26 25 26 24 23 21 18 16 16 16 15 14 14 14 14 13 13 16 22 91 100 100 100 100 100 100 100 100 92 74 78 86 88 99 98

GFSSE_250_rhum_321.txt.gz
RH
93 54 93 100 100 100 90 78 51 90 65 100 85 100 100 99 100 100 97 48 49 76 77 81 68 68 69 100 100 99 90 76 68 70 62 56 54 59 98 77 83 82 64
49 62 78 96 100 100 99 69 81 80 92 100 96 100 100 100 100 100 100 75 35 51 62 73 78 70 60 57 94 100 100 100 100 99 81 67 69 99 100 88 80 68 67
72 71 74 100 100 100 100 77 96 97 94 100 100 100 100 100 100 100 100 95 64 36 59 62 66 56 51 55 49 73 98 100 100 100 100 100 100 96 88 74 64 76 73
85 97 97 100 100 100 100 100 100 96 100 100 100 84 100 100 100 100 100 100 88 64 37 30 33 30 44 50 44 49 56 66 91 98 98 100 100 100 92 77 58 56 43
76 100 100 100 100 81 100 100 100 100 100 100 100 100 73 79 89 83 100 100 100 88 66 43 28 26 27 29 36 47 47 62 69 79 87 93 86 88 78 62 52 46 41
70 100 100 100 100 90 83 100 100 100 100 100 100 100 100 91 98 97 92 100 100 100 86 72 58 36 28 28 28 35 48 59 71 79 80 83 80 78 66 60 53 46 42
86 100 100 100 100 100 97 100 100 100 100 100 100 100 100 100 100 97 80 100 100 84 100 93 63 68 52 35 28 29 39 56 62 62 72 81 80 76 73 65 54 48 43
67 100 100 100 100 100 100 89 92 91 100 100 100 100 100 97 100 100 98 100 100 100 91 100 100 100 89 62 39 32 33 32 46 53 55 60 65 67 62 61 56 51 44
45 89 100 100 100 100 100 100 72 83 99 100 100 99 100 100 95 96 100 100 100 100 100 100 100 88 98 100 82 39 32 32 33 40 55 52 49 50 51 54 51 48 46
48 45 99 100 100 100 100 97 83 65 100 100 100 100 96 100 100 100 100 100 100 100 100 100 100 100 92 97 100 95 50 32 31 27 41 52 51 42 40 51 46 42 41
22 35 48 72 100 100 100 100 83 100 91 100 100 100 100 100 97 100 100 92 100 100 100 100 100 100 100 96 100 100 100 82 36 34 30 35 44 45 36 38 44 39 37
21 28 31 45 82 100 100 100 100 98 99 100 86 100 100 100 100 100 100 100 100 91 100 100 100 100 100 100 93 100 100 100 94 41 35 33 38 40 43 35 32 37 36
18 20 31 57 62 100 100 100 100 100 100 100 96 100 100 100 100 100 100 100 81 84 74 78 98 100 100 100 100 100 100 100 100 100 63 39 32 35 43 48 36 29 34
12 14 19 23 43 74 100 100 100 100 100 100 100 100 91 100 100 100 100 100 100 92 70 66 71 61 99 99 100 100 88 100 100 100 100 100 60 37 32 35 40 34 27
12 12 12 15 27 56 83 100 100 100 100 100 100 100 100 100 94 100 100 100 100 100 100 81 70 62 68 55 66 98 97 60 88 100 100 100 100 99 64 38 32 33 30
16 14 12 12 13 16 33 54 92 100 100 100 100 100 100 100 100 100 96 100 100 100 100 100 96 79 71 63 61 46 79 80 51 89 100 93 100 100 100 99 82 53 31
17 16 16 15 14 13 13 18 49 95 97 93 94 100 100 100 100 100 100 100 100 100 100 100 100 100 96 76 70 58 55 72 82 61 82 100 89 100 100 100 100 100 73
26 22 19 18 17 16 14 15 15 19 55 90 94 88 86 87 100 99 100 100 100 100 100 100 100 97 99 100 100 99 81 65 60 64 56 95 78 88 98 100 100 100 100
45 37 30 25 20 18 19 17 17 16 15 16 39 62 94 88 93 90 100 100 100 100 100 100 92 100 100 96 97 100 100 96 91 73 68 63 81 77 86 100 100 100 100
43 45 45 42 36 29 22 18 18 19 19 17 15 16 22 39 39 52 76 99 100 100 100 100 100 98 100 100 100 98 93 95 100 100 89 68 78 68 60 78 84 100 100
47 42 42 46 45 42 41 34 25 20 19 20 19 19 20 16 14 16 37 43 78 100 100 100 100 100 100 100 100 100 99 94 100 100 100 86 63 87 84 72 84 70 96
65 58 55 55 54 52 48 44 46 34 25 21 20 20 19 19 18 16 14 24 26 42 74 91 93 98 100 100 100 100 100 100 97 89 90 70 78 83 92 76 70 77 78
76 80 83 83 76 68 59 48 39 35 35 31 25 21 19 20 20 19 18 17 15 15 20 41 76 83 97 99 100 100 100 100 100 100 100 96 86 77 76 75 62 67 77
99 99 95 93 87 78 70 60 54 47 39 35 32 29 24 18 18 20 21 18 16 16 16 15 15 37 80 86 88 89 100 100 100 100 100 100 69 48 56 67 66 66 80
100 100 100 100 100 100 96 86 77 67 56 49 42 36 32 27 21 18 18 18 20 17 16 15 17 15 15 39 76 85 95 100 100 100 100 100 100 80 51 48 57 65 80
100 100 100 100 99 93 99 98 88 80 69 59 47 40 35 29 23 19 18 16 16 17 18 16 16 15 16 15 18 48 81 95 84 100 100 100 100 100 90 64 47 62 78

GFSSE_250_rhum_327.txt.gz
RH
90 89 68 57 82 100 84 100 98 97 100 100 100 100 89 86 63 100 100 100 97 69 56 57 59 76 84 71 82 87 87 95 100 99 97 93 98 94 76 67 61 87 82
60 72 56 57 63 87 86 88 80 65 100 100 100 100 100 96 72 81 100 100 100 99 73 68 58 62 70 93 99 88 90 100 90 88 86 85 82 85 83 85 97 100 94
95 97 90 93 63 80 96 100 77 56 92 100 100 100 100 100 69 49 99 100 100 100 89 66 43 46 62 70 89 95 92 100 100 99 85 90 88 92 100 89 100 100 100
70 99 100 100 68 88 91 75 98 74 83 92 100 99 100 100 98 78 55 100 100 100 100 83 61 51 46 62 64 69 91 100 100 100 98 93 100 98 100 100 100 100 100
89 73 84 93 85 75 58 88 78 81 72 90 100 79 88 100 100 76 62 95 100 97 100 100 93 64 49 46 45 47 57 66 89 100 100 100 97 100 100 100 100 100 100
100 97 63 53 52 82 55 62 71 70 84 84 100 100 94 100 100 100 100 94 99 100 94 100 100 99 85 45 30 28 38 42 51 61 86 90 100 100 100 100 100 100 97
86 100 100 82 63 64 62 59 70 66 72 89 97 96 100 94 100 87 79 100 100 100 100 100 89 100 100 95 62 30 29 32 33 37 46 53 65 91 96 99 100 98 84
13 19 32 94 96 99 92 56 70 75 56 72 93 100 97 94 100 94 70 98 100 100 100 100 98 100 100 100 100 65 41 31 33 31 38 45 50 59 69 76 80 79 79
14 13 17 29 80 100 100 98 83 80 74 70 73 94 93 100 100 100 75 53 79 100 88 100 100 100 100 100 100 100 82 56 42 34 34 40 49 57 62 69 80 77 80
12 15 14 18 54 94 100 100 92 100 97 100 84 92 75 88 100 100 100 79 49 48 85 79 100 91 100 100 100 100 100 100 100 66 38 41 47 55 60 66 73 76 73
12 12 16 23 53 84 97 100 100 76 79 64 68 86 90 78 94 100 100 100 84 63 42 66 93 89 91 95 100 100 100 100 100 100 100 51 37 39 54 60 58 62 69
13 12 14 19 34 53 80 100 100 99 75 71 67 66 75 70 76 98 100 100 100 78 58 38 70 97 78 73 100 100 100 100 100 100 100 100 90 43 36 47 51 53 50
14 14 12 12 18 32 56 78 100 100 100 77 65 41 53 64 78 90 90 100 100 100 87 61 42 90 82 58 69 100 100 100 91 96 100 100 100 100 74 37 41 48 54
19 14 14 15 14 13 20 41 58 97 100 100 95 53 48 53 64 82 85 90 100 100 100 97 84 68 91 60 47 76 100 100 100 100 100 100 100 100 100 100 56 36 44
27 22 19 15 15 15 12 13 20 40 66 99 100 92 71 66 60 70 82 76 86 100 100 100 96 87 74 62 61 72 68 87 97 99 84 97 100 100 100 100 100 84 45
27 25 25 22 18 15 16 16 14 14 19 26 49 97 100 100 85 79 68 81 72 65 96 100 100 100 86 64 62 72 84 73 88 100 99 75 66 92 91 98 100 100 100
38 33 28 27 25 22 21 17 18 16 15 16 17 20 35 78 100 100 100 84 78 90 100 80 88 100 100 93 78 53 78 95 91 92 100 100 70 48 59 77 91 100 100
47 45 43 36 30 27 24 23 22 18 18 17 17 17 15 19 22 52 95 100 100 99 86 100 100 77 87 99 100 86 68 68 98 82 93 100 100 90 57 56 57 76 98
50 52 50 46 44 42 37 30 26 23 23 21 20 16 17 17 16 16 18 41 99 100 100 94 93 100 100 89 75 90 100 98 84 97 97 90 88 85 67 55 69 90 88
63 55 52 50 47 46 46 45 40 37 35 28 26 25 25 20 18 19 18 17 19 44 87 100 100 100 99 100 100 97 77 93 100 100 100 100 84 91 93 73 52 48 61
71 74 73 65 55 51 47 44 46 47 43 41 37 33 32 30 30 29 24 21 20 20 18 20 60 100 100 100 100 100 100 94 83 98 89 100 100 100 100 100 92 75 60
95 86 74 63 57 53 51 52 47 42 40 42 41 41 37 34 35 35 36 38 32 28 24 24 21 26 56 85 99 100 99 100 100 100 80 76 83 100 100 100 100 96 74
100 100 100 96 87 75 62 53 47 43 41 40 43 44 45 43 40 39 36 34 36 39 35 27 25 21 21 25 44 72 94 97 99 96 100 100 79 76 95 100 100 100 100
100 99 96 95 89 78 67 60 56 54 51 50 49 48 49 47 44 41 38 36 33 32 34 38 37 33 29 22 23 25 31 47 71 82 86 96 100 100 80 60 100 100 100
100 100 100 100 100 100 100 91 77 69 65 61 54 50 47 45 43 39 36 35 34 32 32 33 34 38 37 32 30 23 21 23 26 31 43 67 78 98 100 100 73 66 87
98 96 93 89 88 86 82 81 83 80 73 67 62 58 52 46 41 40 40 40 40 38 36 32 30 30 29 32 37 38 34 23 19 22 25 25 33 58 81 96 100 100 89

GFSSE_250_rhum_333.txt.gz
RH
15 18 17 63 100 100 100 100 99 100 95 83 88 86 77 100 80 67 79 96 95 96 100 92 79 78 57 92 100 100 95 88 78 75 81 96 99 98 95 100 96 92 78
19 23 35 87 100 100 100 81 65 83 97 92 84 78 69 93 100 80 80 100 100 98 100 100 87 81 73 64 90 100 100 96 99 99 97 89 91 100 98 100 90 85 67
38 28 44 81 96 100 99 66 94 95 99 94 94 100 94 66 92 99 69 97 99 100 100 100 100 97 85 71 66 82 95 98 100 100 99 97 92 90 92 95 87 77 70
52 46 40 69 71 72 66 79 84 81 67 82 94 100 100 92 74 76 78 67 100 90 96 100 100 100 96 77 69 74 76 84 86 95 100 100 100 100 96 75 77 67 72
96 80 66 57 75 62 85 86 86 98 64 71 76 88 78 87 73 67 75 68 99 100 72 72 100 100 100 82 57 67 71 76 87 84 87 84 93 93 95 83 83 90 76
100 67 72 81 78 86 72 54 84 100 100 84 80 89 93 100 72 64 61 72 81 100 84 70 89 79 100 100 100 72 71 75 70 73 72 100 100 91 92 98 92 93 95
16 44 97 100 92 57 49 53 31 81 96 76 70 80 89 94 100 80 48 47 72 79 100 89 56 70 91 90 100 100 100 99 92 66 55 49 83 94 100 100 100 100 100
12 12 17 18 18 20 38 46 39 39 48 79 66 84 91 83 86 100 67 52 54 76 77 92 78 71 65 74 99 100 100 100 99 78 52 53 58 56 47 68 91 100 100
18 14 12 12 14 17 22 55 74 62 45 51 76 72 75 83 84 85 100 89 67 56 78 82 88 84 90 83 62 96 100 78 100 100 100 60 45 54 51 46 55 64 88
20 19 17 12 11 12 15 16 19 37 89 82 56 64 58 60 69 95 99 98 88 83 70 75 74 73 98 95 85 66 74 83 65 100 100 100 100 62 43 43 44 51 57
27 21 21 20 15 13 11 11 12 14 17 48 73 73 66 62 77 67 88 100 100 78 66 57 75 72 78 95 100 93 91 78 86 79 89 99 100 100 96 68 44 43 46
25 27 28 22 25 22 17 13 11 10 13 16 21 59 100 93 87 99 91 84 100 92 88 70 58 63 58 58 85 95 92 95 88 76 68 65 86 100 100 100 97 81 48
29 28 28 30 25 25 29 22 15 13 12 14 32 57 78 96 97 92 92 98 93 91 87 81 86 75 95 57 54 62 81 80 100 98 78 75 63 69 100 100 100 100 100
36 33 33 30 28 28 26 26 28 23 16 13 14 52 98 100 95 85 88 100 100 100 100 98 86 89 94 100 76 60 57 64 63 80 100 97 86 72 68 100 100 100 100
50 40 36 35 34 32 30 31 28 26 28 25 18 14 18 85 100 100 100 88 86 90 98 100 100 99 91 84 94 76 71 57 49 48 59 89 96 88 63 66 100 100 100
56 53 41 38 40 38 34 34 33 31 30 27 28 28 18 15 27 100 100 100 98 91 81 69 81 98 100 96 79 100 96 87 71 61 56 51 62 92 89 65 76 99 100
59 59 58 52 46 44 45 42 41 38 35 32 30 31 29 30 22 17 27 57 100 100 100 100 80 64 66 88 100 91 92 100 100 100 82 70 69 69 87 94 70 60 81
69 62 64 62 57 55 52 48 43 44 42 41 38 33 33 33 32 33 28 19 16 17 40 88 100 100 93 90 79 74 84 88 97 100 100 100 99 99 93 100 92 64 57
89 85 86 81 81 73 65 61 53 49 48 49 47 44 40 35 35 37 35 37 40 30 20 16 19 48 90 100 100 100 100 80 73 94 99 100 100 100 100 95 95 91 77
81 80 76 78 80 77 73 70 69 65 58 52 49 49 46 42 40 37 36 38 37 41 49 45 25 21 18 19 39 82 100 100 100 90 70 92 100 100 100 100 100 100 92
82 79 83 81 78 75 77 80 76 68 63 59 58 54 51 49 43 40 39 37 37 40 39 44 50 53 42 32 24 18 20 82 100 100 100 100 74 71 87 100 100 100 100
92 88 85 81 76 72 71 73 74 72 73 73 71 65 61 60 59 53 46 44 47 47 48 44 41 42 50 59 52 44 28 20 19 62 98 100 100 100 100 95 80 91 96
91 93 93 93 90 86 86 84 83 82 82 82 81 80 75 73 73 67 66 64 55 52 50 49 50 49 46 47 56 64 59 53 32 22 20 36 93 100 100 100 100 92 85
100 100 100 100 100 100 100 96 91 89 88 84 84 82 83 79 70 64 62 58 59 56 57 60 55 49 50 48 44 47 56 61 66 59 37 28 21 25 59 100 100 100 100
92 87 84 75 63 55 53 57 56 53 50 46 45 40 39 38 44 44 45 55 52 45 45 50 54 56 55 52 54 50 47 53 57 70 83 63 38 37 26 21 55 100 100
64 64 62 55 54 53 53 50 50 49 49 47 45 43 43 44 42 38 36 33 33 31 33 42 48 49 52 55 56 54 50 45 49 52 65 84 90 56 42 45 33 27 62